Weather History for Hurlburt Field, FL

Change the Weather History Date:

Tuesday, January 8, 2013

  Actual Average Record
Temperature  
Mean Temperature 54 °F -  
Max Temperature 63 °F 59 °F 73 °F (2005)
Min Temperature 45 °F 41 °F 19 °F (2014)
Degree Days  
Heating Degree Days 11    
Growing Degree Days 4 (Base 50)    
Moisture  
Dew Point 53 °F    
Average Humidity 86    
Maximum Humidity 94    
Minimum Humidity 77    
Precipitation  
Precipitation 0.00 in - - ()
Sea Level Pressure  
Sea Level Pressure 30.21 in    
Wind  
Wind Speed 6 mph (ENE)    
Max Wind Speed 12 mph    
Max Gust Speed -    
Visibility 10 miles    
Events Rain    
Averages and records for this station are not official NWS values.
T = Trace of Precipitation, MM = Missing Value Source: NWS Daily Summary

Daily Weather History Graph

Daily Weather History Graph

Search for Another Location

Airport:

Trip Planner

Search our weather history database for the weather conditions in past years. The results will help you decide how hot, cold, wet, or windy it might be!

Date:

Astronomy

Jan. 08, 2013 Rise Set
Actual Time 6:44 AM CST 5:02 PM CST
Civil Twilight 6:18 AM CST 5:29 PM CST
Nautical Twilight 5:48 AM CST 5:58 PM CST
Astronomical Twilight 5:19 AM CST 6:27 PM CST
Moon 3:18 AM CST (1/8) 2:03 PM CST (1/8)
Length of Visible Light 11h 10m
Length of Day
10h 18m
Waning Crescent, 13% of the Moon is Illuminated
Jan 8
Waning Crescent
Jan 11
New
Jan 18
First Quarter
Jan 26
Full
Feb 3
Last Quarter

Hourly Weather History & Observations

Time (CST) Temp. Windchill Dew Point Humidity Pressure Visibility Wind Dir Wind Speed Gust Speed Precip Events Conditions
12:55 AM 49.1 °F - 42.3 °F 77% 30.20 in 10.0 mi East 5.8 mph - N/A   Clear
1:55 AM 45.0 °F 41.8 °F 41.5 °F 88% 30.21 in 10.0 mi North 5.8 mph - N/A   Clear
2:55 AM 46.0 °F 43.9 °F 42.3 °F 87% 30.21 in 10.0 mi NE 4.6 mph - N/A   Clear
3:21 AM 46.4 °F 44.3 °F 42.8 °F 87% 30.21 in 10.0 mi NE 4.6 mph - N/A   Mostly Cloudy
3:55 AM 48.2 °F - 44.6 °F 87% 30.20 in 10.0 mi NE 6.9 mph - N/A   Overcast
3:56 AM 48.2 °F - 44.6 °F 87% 30.19 in 10.0 mi NE 6.9 mph - N/A   Overcast
4:19 AM 48.2 °F - 44.6 °F 87% 30.19 in 10.0 mi NE 5.8 mph - N/A   Overcast
4:55 AM 50.0 °F - 44.6 °F 82% 30.19 in 10.0 mi NE 5.8 mph - N/A   Overcast
5:48 AM 50.0 °F - 44.6 °F 82% 30.22 in 10.0 mi ENE 6.9 mph - N/A   Overcast
5:55 AM 50.2 °F - 45.7 °F 85% 30.21 in 10.0 mi ENE 6.9 mph - N/A   Overcast
6:25 AM 50.0 °F - 46.4 °F 87% 30.23 in 10.0 mi ENE 6.9 mph - N/A   Overcast
6:55 AM 51.1 °F - 46.4 °F 84% 30.24 in 10.0 mi NE 6.9 mph - N/A   Overcast
7:28 AM 51.8 °F - 46.4 °F 82% 30.25 in 10.0 mi NE 4.6 mph - N/A   Overcast
7:29 AM 51.8 °F - 46.4 °F 82% 30.25 in 10.0 mi NE 4.6 mph - N/A   Overcast
7:36 AM 51.8 °F - 46.4 °F 82% 30.25 in 10.0 mi NE 6.9 mph - N/A   Overcast
7:51 AM 51.8 °F - 46.4 °F 82% 30.26 in 10.0 mi ENE 6.9 mph - N/A   Overcast
7:55 AM 52.3 °F - 47.3 °F 83% 30.26 in 10.0 mi NE 6.9 mph - N/A   Overcast
8:55 AM 55.9 °F - 49.5 °F 79% 30.27 in 10.0 mi East 10.4 mph - N/A   Overcast
9:55 AM 57.2 °F - 51.3 °F 81% 30.27 in 10.0 mi ENE 10.4 mph - N/A   Overcast
10:55 AM 58.6 °F - 53.4 °F 83% 30.27 in 10.0 mi East 5.8 mph - N/A   Overcast
11:15 AM 59.0 °F - 53.6 °F 82% 30.25 in 10.0 mi East 6.9 mph - N/A Rain Light Rain
11:25 AM 59.0 °F - 53.6 °F 82% 30.25 in 10.0 mi ENE 6.9 mph - N/A   Overcast
11:55 AM 59.7 °F - 54.9 °F 84% 30.23 in 10.0 mi ENE 4.6 mph - 0.00 in   Light Drizzle
11:58 AM 59.0 °F - 55.4 °F 88% 30.23 in 10.0 mi East 4.6 mph - N/A   Light Drizzle
12:04 PM 60.8 °F - 55.4 °F 82% 30.23 in 10.0 mi East 5.8 mph - N/A   Overcast
12:13 PM 60.8 °F - 55.4 °F 82% 30.22 in 10.0 mi East 4.6 mph - N/A   Overcast
12:55 PM 61.3 °F - 57.4 °F 87% 30.22 in 10.0 mi Calm Calm - 0.00 in   Overcast
1:19 PM 60.8 °F - 57.2 °F 88% 30.21 in 10.0 mi ESE 5.8 mph - N/A   Overcast
1:31 PM 60.8 °F - 57.2 °F 88% 30.21 in 10.0 mi SSE 3.5 mph - N/A   Overcast
1:55 PM 61.7 °F - 58.8 °F 90% 30.20 in 10.0 mi SE 4.6 mph - N/A   Overcast
2:16 PM 62.6 °F - 59.0 °F 88% 30.20 in 10.0 mi SE 4.6 mph - N/A   Overcast
2:37 PM 62.6 °F - 59.0 °F 88% 30.19 in 10.0 mi SSE 5.8 mph - N/A   Overcast
2:55 PM 62.4 °F - 59.0 °F 89% 30.19 in 10.0 mi East 4.6 mph - N/A   Overcast
3:35 PM 62.6 °F - 60.8 °F 94% 30.19 in 10.0 mi ENE 5.8 mph - N/A   Overcast
3:55 PM 63.3 °F - 60.3 °F 90% 30.19 in 10.0 mi NE 5.8 mph - N/A   Overcast
4:55 PM 62.1 °F - 58.1 °F 87% 30.18 in 10.0 mi NNE 6.9 mph - N/A   Overcast
5:55 PM 60.8 °F - 57.2 °F 88% 30.19 in 10.0 mi NNE 6.9 mph - N/A   Overcast
6:55 PM 60.6 °F - 57.0 °F 88% 30.19 in 10.0 mi NNE 6.9 mph - N/A   Overcast
7:55 PM 62.1 °F - 57.9 °F 86% 30.19 in 10.0 mi NE 8.1 mph - N/A   Overcast
8:55 PM 63.3 °F - 59.2 °F 86% 30.18 in 10.0 mi ENE 11.5 mph - N/A   Overcast
9:42 PM 62.6 °F - 59.0 °F 88% 30.19 in 10.0 mi ENE 9.2 mph - N/A   Overcast
9:55 PM 62.4 °F - 59.0 °F 89% 30.19 in 10.0 mi ENE 9.2 mph - N/A   Mostly Cloudy
9:58 PM 62.6 °F - 59.0 °F 88% 30.19 in 10.0 mi ENE 10.4 mph - N/A   Scattered Clouds
10:08 PM 62.6 °F - 59.0 °F 88% 30.19 in 10.0 mi ENE 9.2 mph - N/A   Mostly Cloudy
10:42 PM 62.6 °F - 59.0 °F 88% 30.19 in 10.0 mi East 9.2 mph - N/A   Mostly Cloudy
10:55 PM 62.6 °F - 59.7 °F 90% 30.19 in 10.0 mi East 9.2 mph - N/A   Scattered Clouds
11:51 PM 62.6 °F - 60.8 °F 94% 30.19 in 10.0 mi East 10.4 mph - N/A   Overcast
11:55 PM 63.0 °F - 60.4 °F 91% 30.19 in 10.0 mi East 10.4 mph - N/A   Overcast